FW2488 Weather Reports


time (UTC)temp
C
wind
direction
speed
KPH
gust
KPH
rain 1hr
cm
rain 24hr
cm
rain mn
cm
humidity
%
barometer
mb
20260906122824 20 74 3.2 9.7 0.00 0.00 0.00 84 1016.2
20260906122325 20 23 1.6 9.7 0.00 0.00 0.00 85 1016.1
20260906121822 20 83 1.6 6.4 0.00 0.00 0.00 85 1016.1
20260906121545 19 43 1.6 8.0 0.00 0.00 0.00 85 1016.0
20260906120819 19 37 1.6 8.0 0.00 0.00 0.00 85 1016.0
20260906120319 19 10 1.6 6.4 0.00 0.00 0.00 85 1016.0
20260906115819 19 0 1.6 8.0 0.00 0.00 0.00 85 1016.0
20260906115320 18 0 1.6 8.0 0.00 0.00 0.00 86 1016.0
20260906114819 18 27 1.6 8.0 0.00 0.00 0.00 87 1015.9
20260906114545 18 32 1.6 6.4 0.00 0.00 0.00 88 1015.8
20260906113821 18 341 1.6 6.4 0.00 0.00 0.00 88 1015.6
20260906113321 18 14 0.0 6.4 0.00 0.00 0.00 89 1015.7
20260906112821 17 22 0.0 0.0 0.00 0.00 0.00 90 1015.6
20260906112319 17 22 0.0 3.2 0.00 0.00 0.00 89 1015.6
20260906111819 17 22 0.0 3.2 0.00 0.00 0.00 90 1015.7
20260906111319 17 22 0.0 1.6 0.00 0.00 0.00 89 1015.5
20260906110819 17 22 0.0 0.0 0.00 0.00 0.00 89 1015.3
20260906110321 17 22 0.0 0.0 0.00 0.00 0.00 89 1015.3
20260906105820 17 22 0.0 0.0 0.00 0.00 0.00 89 1015.2
20260906105320 17 22 0.0 3.2 0.00 0.00 0.00 88 1015.1
20260906105252 17 22 0.0 3.2 0.00 0.00 0.00 88 1015.0
20260906104308 17 22 0.0 3.2 0.00 0.00 0.00 88 1015.0
20260906103802 17 10 0.0 1.6 0.00 0.00 0.00 88 1014.9
20260906103522 17 10 0.0 1.6 0.00 0.00 0.00 88 1014.7
20260906102750 17 10 0.0 1.6 0.00 0.00 0.00 88 1014.7
20260906102244 17 10 0.0 1.6 0.00 0.00 0.00 88 1014.6
20260906101738 18 10 0.0 4.8 0.00 0.00 0.00 88 1014.5
20260906101232 18 10 0.0 4.8 0.00 0.00 0.00 88 1014.5
20260906100952 18 5 0.0 4.8 0.00 0.00 0.00 87 1014.4
20260906100219 18 5 1.6 6.4 0.00 0.00 0.00 87 1014.3
20260906095712 18 29 0.0 4.8 0.00 0.00 0.00 87 1014.3
20260906095424 18 24 0.0 1.6 0.00 0.00 0.00 87 1014.2
20260906094700 18 24 0.0 1.6 0.00 0.00 0.00 86 1014.2
20260906094154 18 24 0.0 4.8 0.00 0.00 0.00 86 1014.2
20260906093909 18 24 0.0 4.8 0.00 0.00 0.00 86 1014.2
20260906093359 18 24 0.0 4.8 0.00 0.00 0.00 86 1014.1
20260906092636 18 24 0.0 0.0 0.00 0.00 0.00 86 1014.1
20260906092129 18 24 1.6 6.4 0.00 0.00 0.00 86 1014.0
20260906091624 18 24 1.6 6.4 0.00 0.00 0.00 87 1013.9
20260906091118 18 24 1.6 4.8 0.00 0.00 0.00 87 1013.9
20260906090612 18 24 1.6 6.4 0.00 0.00 0.00 88 1013.8
20260906090106 17 20 0.0 6.4 0.00 0.00 0.00 89 1013.7
20260906085831 17 10 0.0 0.0 0.00 0.00 0.00 89 1013.7
20260906085054 17 10 0.0 0.0 0.00 0.00 0.00 89 1013.7
20260906084547 17 10 0.0 0.0 0.00 0.00 0.00 90 1013.8
20260906084041 17 10 0.0 0.0 0.00 0.00 0.00 90 1013.8
20260906083536 17 10 0.0 0.0 0.00 0.00 0.00 90 1013.7
20260906083030 17 10 0.0 0.0 0.00 0.00 0.00 90 1013.8
20260906082746 17 10 0.0 0.0 0.00 0.00 0.00 90 1013.7
20260906082018 17 10 0.0 0.0 0.00 0.00 0.00 90 1013.7
20260906081512 17 10 0.0 0.0 0.00 0.00 0.00 90 1013.7
20260906081007 17 10 0.0 0.0 0.00 0.00 0.00 89 1013.6
20260906080500 17 10 0.0 0.0 0.00 0.00 0.00 89 1013.6
20260906075954 17 10 0.0 0.0 0.00 0.00 0.00 89 1013.5
20260906075447 17 10 0.0 0.0 0.00 0.00 0.00 90 1013.4
20260906074942 18 10 0.0 0.0 0.00 0.00 0.00 89 1013.4
20260906074657 18 10 0.0 0.0 0.00 0.00 0.00 89 1013.3
20260906073930 18 10 0.0 0.0 0.00 0.00 0.00 90 1013.4
20260906073645 18 10 0.0 0.0 0.00 0.00 0.00 90 1013.4
20260906072918 18 10 0.0 0.0 0.00 0.00 0.00 90 1013.3
20260906072411 17 10 0.0 0.0 0.00 0.00 0.00 90 1013.5
20260906071906 17 10 0.0 0.0 0.00 0.00 0.00 90 1013.5
20260906071400 17 10 0.0 0.0 0.00 0.00 0.00 90 1013.3
20260906070854 18 10 0.0 0.0 0.00 0.00 0.00 90 1013.2
20260906070348 18 10 0.0 0.0 0.00 0.00 0.00 89 1013.2
20260906065842 18 10 0.0 0.0 0.00 0.00 0.00 89 1013.4
20260906065336 18 10 0.0 0.0 0.00 0.00 0.00 88 1013.3
20260906064830 18 10 0.0 0.0 0.00 0.00 0.00 88 1013.3
20260906064548 18 10 0.0 0.0 0.00 0.00 0.00 88 1013.5
20260906063818 18 10 0.0 0.0 0.00 0.00 0.00 87 1013.5
20260906063311 18 10 0.0 0.0 0.00 0.00 0.00 87 1013.5
20260906062806 18 10 0.0 0.0 0.00 0.00 0.00 87 1013.6
20260906062300 19 10 0.0 1.6 0.00 0.00 0.00 86 1013.5
20260906061754 19 10 0.0 3.2 0.00 0.00 0.00 86 1013.6
20260906061248 19 10 0.0 3.2 0.00 0.00 0.00 86 1013.4
20260906060743 19 10 0.0 1.6 0.00 0.00 0.00 86 1013.3
20260906060235 19 10 0.0 1.6 0.00 0.00 0.00 86 1013.2
20260906055730 19 10 0.0 4.8 0.00 0.00 0.00 86 1013.3
20260906055224 19 10 0.0 4.8 0.00 0.00 0.00 86 1013.2
20260906054717 19 10 1.6 8.0 0.00 0.00 0.00 86 1013.3
20260906054212 19 10 0.0 8.0 0.00 0.00 0.00 86 1013.4
20260906053706 19 64 0.0 3.2 0.00 0.00 0.00 86 1013.5
20260906053159 19 64 0.0 1.6 0.00 0.00 0.00 86 1013.5
20260906052654 19 64 1.6 6.4 0.00 0.00 0.00 86 1013.5
20260906052148 19 64 1.6 6.4 0.00 0.00 0.00 87 1013.7
20260906051642 18 64 0.0 6.4 0.00 0.00 0.00 89 1013.5
20260906051135 18 65 0.0 4.8 0.00 0.00 0.00 90 1013.6
20260906050630 18 65 0.0 4.8 0.00 0.00 0.00 91 1013.6
20260906050124 18 67 0.0 1.6 0.00 0.00 0.00 92 1013.6
20260906045618 18 67 0.0 0.0 0.00 0.00 0.00 93 1013.7
20260906045335 18 67 0.0 0.0 0.00 0.00 0.00 94 1013.7
20260906044606 18 67 0.0 1.6 0.00 0.00 0.00 94 1013.7
20260906044059 18 67 0.0 1.6 0.00 0.00 0.00 95 1013.7
20260906043554 17 67 0.0 0.0 0.00 0.00 0.00 95 1013.8
20260906043047 17 68 0.0 0.0 0.00 0.00 0.00 95 1013.8
20260906042542 17 68 0.0 0.0 0.00 0.00 0.00 94 1013.9
20260906042036 18 68 0.0 0.0 0.00 0.00 0.00 94 1013.8
20260906041530 18 68 0.0 0.0 0.00 0.00 0.00 94 1013.7
20260906041024 18 68 0.0 0.0 0.00 0.00 0.00 94 1013.7
20260906040518 18 68 0.0 0.0 0.00 0.00 0.00 94 1013.7
20260906040012 18 68 0.0 0.0 0.00 0.00 0.00 93 1013.8
20260906035506 18 68 0.0 0.0 0.00 0.00 0.00 93 1013.8
20260906035000 18 68 0.0 0.0 0.00 0.00 0.00 93 1013.8
20260906034454 18 68 0.0 0.0 0.00 0.00 0.00 93 1013.8
20260906033948 18 68 0.0 0.0 0.00 0.00 0.00 93 1013.9
20260906033441 18 68 0.0 0.0 0.00 0.00 0.00 92 1013.9
20260906033206 18 68 0.0 0.0 0.00 0.00 0.00 92 1014.0
20260906032701 18 68 0.0 0.0 0.00 0.00 0.00 92 1014.0
20260906031938 18 68 0.0 0.0 0.00 0.00 0.00 92 1014.0
20260906031439 18 68 0.0 0.0 0.00 0.00 0.00 91 1014.1
20260906031154 18 68 0.0 0.0 0.00 0.00 0.00 91 1013.9
20260906030436 19 68 0.0 0.0 0.00 0.00 0.00 91 1013.8
20260906025937 19 68 0.0 0.0 0.00 0.00 0.00 90 1013.7
20260906025436 19 68 0.0 0.0 0.00 0.00 0.00 90 1013.7
20260906024933 19 68 0.0 0.0 0.00 0.00 0.00 90 1013.7
20260906024433 19 68 0.0 0.0 0.00 0.00 0.00 89 1013.7
20260906023934 19 68 0.0 0.0 0.00 0.00 0.00 89 1013.7
20260906023658 19 68 0.0 0.0 0.00 0.00 0.00 89 1013.7
20260906023153 20 68 0.0 0.0 0.00 0.00 0.00 89 1013.6
20260906022430 20 68 0.0 0.0 0.00 0.00 0.00 88 1013.6
20260906021930 20 68 0.0 0.0 0.00 0.00 0.00 87 1013.6
20260906021430 20 68 0.0 0.0 0.00 0.00 0.00 87 1013.6
20260906020928 20 68 0.0 0.0 0.00 0.00 0.00 87 1013.5
20260906020657 20 68 0.0 0.0 0.00 0.00 0.00 86 1013.6
20260906015928 20 68 0.0 0.0 0.00 0.00 0.00 86 1013.7
20260906015430 20 68 0.0 0.0 0.00 0.00 0.00 86 1013.5
20260906014928 21 68 0.0 0.0 0.00 0.00 0.00 85 1013.4
20260906014430 21 68 0.0 0.0 0.00 0.00 0.00 85 1013.2
20260906013926 21 68 0.0 0.0 0.00 0.00 0.00 84 1013.4
20260906013425 21 68 0.0 0.0 0.00 0.00 0.00 83 1013.3
20260906012924 21 68 0.0 0.0 0.00 0.00 0.00 83 1013.2
20260906012650 21 68 0.0 0.0 0.00 0.00 0.00 82 1013.2
20260906011924 21 68 0.0 0.0 0.00 0.00 0.00 81 1013.2
20260906011643 22 68 0.0 0.0 0.00 0.00 0.00 81 1013.1
20260906010925 22 68 0.0 0.0 0.00 0.00 0.00 80 1013.2
20260906010425 22 68 0.0 0.0 0.00 0.00 0.00 80 1013.0
20260906005926 22 68 0.0 0.0 0.00 0.00 0.00 81 1013.0
20260906005425 22 68 0.0 0.0 0.00 0.00 0.00 81 1013.0
20260906004922 22 68 0.0 0.0 0.00 0.00 0.00 81 1013.0
20260906004647 22 68 0.0 0.0 0.00 0.00 0.00 81 1013.0
20260906003922 22 68 0.0 0.0 0.00 0.00 0.00 81 1012.9
20260906003636 23 68 0.0 0.0 0.00 0.00 0.00 80 1012.9
20260906002919 23 68 0.0 0.0 0.00 0.00 0.00 80 1012.8
20260906002421 23 68 0.0 0.0 0.00 0.00 0.00 79 1012.8
20260906001916 23 68 0.0 0.0 0.00 0.00 0.00 78 1012.6
20260906001416 23 68 0.0 0.0 0.00 0.00 0.00 78 1012.6
20260906000913 23 68 0.0 0.0 0.00 0.00 0.00 77 1012.7
20260906000412 24 68 0.0 0.0 0.00 0.00 0.00 76 1012.6
20260905235908 24 68 0.0 0.0 0.00 0.00 0.00 76 1012.5
20260905235407 24 68 0.0 0.0 0.00 0.00 0.00 75 1012.6
20260905234907 25 68 0.0 0.0 0.00 0.00 0.00 74 1012.5
20260905234407 25 68 0.0 0.0 0.00 0.00 0.00 73 1012.4
20260905233906 25 68 0.0 3.2 0.00 0.00 0.00 72 1012.3
20260905233403 25 68 0.0 3.2 0.00 0.00 0.00 71 1012.4
20260905232900 25 31 0.0 3.2 0.00 0.00 0.00 69 1012.2
20260905232359 25 31 0.0 3.2 0.00 0.00 0.00 69 1012.0
20260905231901 26 31 1.6 3.2 0.00 0.00 0.00 68 1012.0
20260905231353 26 31 1.6 8.0 0.00 0.00 0.00 67 1012.0
20260905230846 26 30 3.2 8.0 0.00 0.00 0.00 68 1012.0
20260905230340 26 25 1.6 6.4 0.00 0.00 0.00 68 1012.0
20260905225834 26 25 1.6 6.4 0.00 0.00 0.00 68 1012.2
20260905225329 26 25 1.6 6.4 0.00 0.00 0.00 68 1012.2
20260905225042 26 17 1.6 6.4 0.00 0.00 0.00 68 1012.1
20260905224535 26 14 3.2 6.4 0.00 0.00 0.00 68 1012.0
20260905224033 26 38 3.2 6.4 0.00 0.00 0.00 68 1012.0
20260905223526 26 37 1.6 6.4 0.00 0.00 0.00 69 1012.0
20260905223024 26 56 1.6 3.2 0.00 0.00 0.00 69 1012.0
20260905222252 26 56 1.6 3.2 0.00 0.00 0.00 69 1011.9
20260905221747 27 47 1.6 4.8 0.00 0.00 0.00 68 1011.8
20260905221240 27 47 1.6 6.4 0.00 0.00 0.00 68 1011.8
20260905220958 27 47 1.6 4.8 0.00 0.00 0.00 68 1011.7
20260905220228 27 103 1.6 4.8 0.00 0.00 0.00 67 1011.6
20260905215722 27 106 3.2 8.0 0.00 0.00 0.00 67 1011.6
20260905215439 27 113 1.6 8.0 0.00 0.00 0.00 67 1011.5
20260905214710 27 46 3.2 8.0 0.00 0.00 0.00 67 1011.4
20260905214432 28 60 3.2 8.0 0.00 0.00 0.00 65 1011.4
20260905213658 28 51 3.2 9.7 0.00 0.00 0.00 65 1011.4
20260905213417 28 10 3.2 9.7 0.00 0.00 0.00 64 1011.3
20260905212647 28 340 3.2 11.3 0.00 0.00 0.00 63 1011.2
20260905212140 28 61 3.2 11.3 0.00 0.00 0.00 63 1011.1
20260905211634 28 10 3.2 9.7 0.00 0.00 0.00 64 1011.1
20260905211129 28 346 1.6 9.7 0.00 0.00 0.00 63 1011.1
20260905210622 28 18 1.6 9.7 0.00 0.00 0.00 63 1011.1
20260905210117 28 20 3.2 11.3 0.00 0.00 0.00 64 1011.1
20260905205610 28 10 4.8 11.3 0.00 0.00 0.00 65 1011.0
20260905205328 28 347 4.8 14.5 0.00 0.00 0.00 66 1011.0
20260905204558 28 32 4.8 14.5 0.00 0.00 0.00 65 1011.0
20260905204315 28 10 3.2 8.0 0.00 0.00 0.00 67 1011.1
20260905203813 27 180 3.2 6.4 0.00 0.00 0.00 67 1011.2
20260905203041 27 97 1.6 6.4 0.00 0.00 0.00 68 1011.3
20260905202535 27 89 3.2 6.4 0.00 0.00 0.00 68 1011.3
20260905202029 27 102 3.2 9.7 0.00 0.00 0.00 68 1011.4
20260905201522 27 345 3.2 11.3 0.00 0.00 0.00 69 1011.3
20260905201459 27 355 3.2 11.3 0.00 0.00 0.00 70 1011.3
20260905200510 27 55 1.6 4.8 0.00 0.00 0.00 72 1011.4
20260905200004 26 41 3.2 8.0 0.00 0.00 0.00 72 1011.6
20260905195459 26 101 3.2 8.0 0.00 0.00 0.00 71 1011.6
20260905194952 26 37 3.2 8.0 0.00 0.00 0.00 71 1011.5
20260905194446 26 32 3.2 9.7 0.00 0.00 0.00 71 1011.5
20260905194301 27 114 3.2 9.7 0.00 0.00 0.00 70 1011.5
20260905194212 27 93 1.6 9.7 0.00 0.00 0.00 71 1011.6
20260905192928 27 181 1.6 4.8 0.00 0.00 0.00 70 1011.5
20260905192422 27 181 3.2 11.3 0.00 0.00 0.00 71 1011.6
20260905191916 26 181 4.8 11.3 0.00 0.00 0.00 71 1011.7
20260905191410 26 170 4.8 11.3 0.00 0.00 0.00 70 1011.7
20260905190905 26 172 4.8 11.3 0.00 0.00 0.00 70 1011.8
20260905190358 26 74 3.2 11.3 0.00 0.00 0.00 71 1011.9
20260905185852 26 172 1.6 9.7 0.00 0.00 0.00 72 1012.0
20260905185606 26 94 3.2 9.7 0.00 0.00 0.00 72 1012.0
20260905184840 26 81 1.6 6.4 0.00 0.00 0.00 73 1012.1
20260905184334 26 97 1.6 4.8 0.00 0.00 0.00 75 1012.1
20260905183828 26 71 1.6 4.8 0.00 0.00 0.00 75 1012.3
20260905183322 26 68 1.6 8.0 0.00 0.00 0.00 75 1012.3
20260905182817 26 116 1.6 8.0 0.00 0.00 0.00 74 1012.4
20260905182315 26 92 1.6 6.4 0.00 0.00 0.00 75 1012.5
20260905181815 26 89 3.2 6.4 0.00 0.00 0.00 74 1012.6
20260905181810 26 88 1.6 6.4 0.00 0.00 0.00 73 1012.6
20260905180813 26 87 3.2 8.0 0.00 0.00 0.00 73 1012.7
20260905180311 27 31 1.6 8.0 0.00 0.00 0.00 72 1012.6
20260905175809 27 51 1.6 4.8 0.00 0.00 0.00 73 1012.6
20260905175307 27 108 1.6 4.8 0.00 0.00 0.00 73 1012.6
20260905175029 27 110 1.6 4.8 0.00 0.00 0.00 73 1012.6
20260905174521 27 110 1.6 6.4 0.00 0.00 0.00 74 1012.6
20260905173802 27 107 3.2 6.4 0.00 0.00 0.00 73 1012.7
20260905173524 27 29 1.6 6.4 0.00 0.00 0.00 72 1012.9
20260905172800 27 41 0.0 3.2 0.00 0.00 0.00 73 1012.9
20260905172258 27 41 1.6 4.8 0.00 0.00 0.00 72 1012.9
20260905171759 27 41 1.6 4.8 0.00 0.00 0.00 72 1012.9
20260905171257 27 46 3.2 9.7 0.00 0.00 0.00 72 1012.9
20260905170759 27 97 3.2 9.7 0.00 0.00 0.00 71 1012.9
20260905170257 27 27 1.6 6.4 0.00 0.00 0.00 72 1012.9
20260905165759 27 26 1.6 4.8 0.00 0.00 0.00 73 1012.9
20260905165257 27 22 1.6 6.4 0.00 0.00 0.00 74 1013.0
20260905164757 27 22 1.6 9.7 0.00 0.00 0.00 73 1012.8
20260905164256 27 34 3.2 9.7 0.00 0.00 0.00 74 1012.8
20260905163753 27 70 1.6 6.4 0.00 0.00 0.00 73 1012.8
20260905163253 27 24 1.6 8.0 0.00 0.00 0.00 74 1012.8
20260905162755 26 24 3.2 11.3 0.00 0.00 0.00 73 1012.9
20260905162514 27 47 3.2 12.9 0.00 0.00 0.00 74 1013.0
20260905161753 27 109 3.2 9.7 0.00 0.00 0.00 73 1013.2
20260905161515 27 103 3.2 9.7 0.00 0.00 0.00 73 1013.2
20260905160751 27 93 3.2 11.3 0.00 0.00 0.00 74 1013.3
20260905160252 27 101 3.2 11.3 0.00 0.00 0.00 72 1013.3
20260905160006 26 59 1.6 4.8 0.00 0.00 0.00 73 1013.2
20260905155248 26 60 1.6 6.4 0.00 0.00 0.00 74 1013.3
20260905155006 26 56 1.6 6.4 0.00 0.00 0.00 73 1013.5
20260905154247 26 22 1.6 6.4 0.00 0.00 0.00 73 1013.5
20260905154006 26 22 3.2 6.4 0.00 0.00 0.00 73 1013.6
20260905153509 26 59 3.2 6.4 0.00 0.00 0.00 72 1013.7
20260905152749 26 75 1.6 9.7 0.00 0.00 0.00 72 1013.6
20260905152247 26 85 3.2 9.7 0.00 0.00 0.00 72 1013.6
20260905151749 26 29 4.8 9.7 0.00 0.00 0.00 72 1013.7
20260905151246 26 85 3.2 9.7 0.00 0.00 0.00 72 1013.7
20260905150745 27 93 3.2 9.7 0.00 0.00 0.00 70 1013.7
20260905150245 27 110 3.2 9.7 0.00 0.00 0.00 71 1013.5
20260905150010 27 79 3.2 9.7 0.00 0.00 0.00 71 1013.6
20260905145514 27 51 3.2 8.0 0.00 0.00 0.00 72 1013.5
20260905144746 27 49 3.2 8.0 0.00 0.00 0.00 71 1013.4
20260905144247 27 353 3.2 12.9 0.00 0.00 0.00 74 1013.3
20260905143745 26 10 3.2 12.9 0.00 0.00 0.00 72 1013.3
20260905143245 26 87 3.2 12.9 0.00 0.00 0.00 73 1013.2
20260905142747 26 53 4.8 12.9 0.00 0.00 0.00 74 1013.1
20260905142241 26 0 4.8 14.5 0.00 0.00 0.00 74 1013.1
20260905142225 26 105 4.8 14.5 0.00 0.00 0.00 74 1013.0
20260905141235 26 85 4.8 14.5 0.00 0.00 0.00 74 1013.0
20260905140736 26 105 4.8 14.5 0.00 0.00 0.00 75 1013.0
20260905140235 26 43 4.8 14.5 0.00 0.00 0.00 76 1013.0
20260905135735 26 0 4.8 14.5 0.00 0.00 0.00 77 1013.0
20260905135236 26 105 4.8 14.5 0.00 0.00 0.00 77 1013.1
20260905134737 26 83 4.8 12.9 0.00 0.00 0.00 79 1013.1
20260905134235 25 10 4.8 12.9 0.00 0.00 0.00 78 1013.0
20260905133737 25 70 4.8 14.5 0.00 0.00 0.00 79 1013.0
20260905133234 25 27 4.8 14.5 0.00 0.00 0.00 80 1013.0
20260905132736 25 16 6.4 16.1 0.00 0.00 0.00 81 1013.0
20260905132234 25 10 6.4 16.1 0.00 0.00 0.00 80 1013.0
20260905131733 25 27 4.8 14.5 0.00 0.00 0.00 80 1013.1
20260905131235 25 83 4.8 17.7 0.00 0.00 0.00 79 1013.2
20260905130731 25 33 4.8 17.7 0.00 0.00 0.00 81 1013.1
20260905130231 24 58 4.8 14.5 0.00 0.00 0.00 85 1013.0
20260905125731 24 10 4.8 12.9 0.00 0.00 0.00 87 1012.8
20260905125225 24 58 3.2 12.9 0.00 0.00 0.00 89 1012.8
20260905124719 23 23 3.2 9.7 0.00 0.00 0.00 90 1012.8
20260905124431 23 32 1.6 6.4 0.00 0.00 0.00 91 1013.0
20260905123708 23 32 1.6 8.0 0.00 0.00 0.00 91 1012.9